Portsmouth, NH

8:59 PM EDT on March 27, 2017 (GMT -0400)
Pease International Tradeport

Weather History for KPSM - October, 2014

Change the Weather History Date:

Saturday, October 25, 2014

  Actual Average Record
Temperature  
Mean Temperature 54 °F -  
Max Temperature 66 °F 54 °F 77 °F (2001)
Min Temperature 42 °F 37 °F 18 °F (1982)
Degree Days  
Heating Degree Days 12    
Growing Degree Days 4 (Base 50)    
Moisture  
Dew Point 40 °F    
Average Humidity 63    
Maximum Humidity 87    
Minimum Humidity 34    
Precipitation  
Precipitation 0.00 in - - ()
Sea Level Pressure  
Sea Level Pressure 29.64 in    
Wind  
Wind Speed 6 mph (WSW)    
Max Wind Speed 12 mph    
Max Gust Speed -    
Visibility 10 miles    
Events      
Averages and records for this station are not official NWS values.
T = Trace of Precipitation, MM = Missing Value Source: NWS Daily Summary

Daily Weather History Graph

Daily Weather History Graph

Search for Another Location

Airport or City:

Trip Planner

Search our weather history database for the weather conditions in past years. The results will help you decide how hot, cold, wet, or windy it might be!

Date:

Astronomy

Oct. 25, 2014 Rise Set
Actual Time 7:09 AM EDT 5:44 PM EDT
Civil Twilight 6:39 AM EDT 6:14 PM EDT
Nautical Twilight 6:06 AM EDT 6:47 PM EDT
Astronomical Twilight 5:33 AM EDT 7:20 PM EDT
Moon 8:46 AM EDT (10/25) 7:03 PM EDT (10/25)
Length of Visible Light 11h 34m
Length of Day
10h 35m
Waxing Crescent, 3% of the Moon is Illuminated
Oct 25
Waxing Crescent
Oct 30
First Quarter
Nov 6
Full
Nov 14
Last Quarter
Nov 22
New

Hourly Weather History & Observations

Time (EDT) Temp. Windchill Dew Point Humidity Pressure Visibility Wind Dir Wind Speed Gust Speed Precip Events Conditions
12:58 AM 46.0 °F 42.5 °F 42.3 °F 87% 29.73 in 10.0 mi West 6.9 mph - N/A   Mostly Cloudy
1:58 AM 46.6 °F - 42.6 °F 86% 29.73 in 10.0 mi West 6.9 mph - N/A   Mostly Cloudy
2:58 AM 46.2 °F 43.3 °F 42.3 °F 86% 29.73 in 10.0 mi West 5.8 mph - N/A   Mostly Cloudy
3:58 AM 45.0 °F 41.8 °F 41.2 °F 87% 29.73 in 10.0 mi SW 5.8 mph - N/A   Mostly Cloudy
4:58 AM 46.6 °F - 41.2 °F 81% 29.73 in 10.0 mi West 3.5 mph - N/A   Mostly Cloudy
5:58 AM 45.3 °F - 39.2 °F 79% 29.73 in 10.0 mi South 1.2 mph - N/A   Scattered Clouds
6:58 AM 42.8 °F 40.1 °F 37.8 °F 82% 29.73 in 10.0 mi SW 4.6 mph - N/A   Mostly Cloudy
7:58 AM 47.3 °F - 38.1 °F 70% 29.72 in 10.0 mi West 6.9 mph - N/A   Mostly Cloudy
8:58 AM 48.7 °F - 39.0 °F 69% 29.73 in 10.0 mi WSW 8.1 mph - N/A   Mostly Cloudy
9:58 AM 54.0 °F - 41.0 °F 62% 29.70 in 10.0 mi West 5.8 mph - N/A   Mostly Cloudy
10:58 AM 57.4 °F - 41.5 °F 56% 29.68 in 10.0 mi West 11.5 mph - N/A   Scattered Clouds
11:58 AM 61.2 °F - 41.2 °F 48% 29.66 in 10.0 mi West 11.5 mph - N/A   Scattered Clouds
12:58 PM 63.7 °F - 39.7 °F 41% 29.64 in 10.0 mi West 11.5 mph - N/A   Partly Cloudy
1:58 PM 65.5 °F - 37.6 °F 36% 29.61 in 10.0 mi West 10.4 mph - N/A   Partly Cloudy
2:58 PM 64.0 °F - 35.1 °F 34% 29.59 in 10.0 mi West 4.6 mph - N/A   Mostly Cloudy
3:58 PM 65.1 °F - 36.1 °F 34% 29.57 in 10.0 mi West 6.9 mph - N/A   Scattered Clouds
4:58 PM 63.9 °F - 36.3 °F 36% 29.56 in 10.0 mi SW 2.3 mph - N/A   Mostly Cloudy
5:58 PM 58.6 °F - 39.9 °F 50% 29.57 in 10.0 mi WSW 5.8 mph - N/A   Mostly Cloudy
6:58 PM 56.5 °F - 41.2 °F 57% 29.55 in 10.0 mi South 6.9 mph - N/A   Mostly Cloudy
7:58 PM 55.4 °F - 41.7 °F 60% 29.55 in 10.0 mi WSW 2.3 mph - N/A   Mostly Cloudy
8:58 PM 55.6 °F - 44.1 °F 65% 29.54 in 10.0 mi SW 3.5 mph - N/A   Overcast
9:58 PM 55.4 °F - 44.4 °F 67% 29.52 in 10.0 mi SSW 2.3 mph - N/A   Overcast
10:58 PM 54.5 °F - 44.6 °F 69% 29.50 in 10.0 mi Calm Calm - N/A   Overcast
11:58 PM 53.2 °F - 43.7 °F 70% 29.46 in 10.0 mi Variable 3.5 mph - N/A   Overcast